Location: Newark
(52.3500°N, 175.9667°E)
Time: 01:27:15
(UTC+00:00)

N. Korean satellite - Pass Details

Date: 21 November 2019
Orbit: 456 x 506 km, 97.2° (Epoch: 06 December)

Event Time Altitude Azimuth Distance (km) Brightness Sun altitude
Rises 17:48:46 0° 19° (NNE) 2,621 10.4 -17.7°
Reaches altitude 10° 17:50:59 10° 27° (NNE) 1,726 9.5 -17.3°
Maximum altitude 17:54:29 39° 97° (E) 770 8.2 -16.8°
Drops below altitude 10° 17:57:56 10° 168° (SSE) 1,692 9.6 -16.3°
Sets 18:00:04 0° 176° (S) 2,561 10.4 -16.0°
